Regional Weather Roundup
Issued by NWS

Home | Current Version | Previous Version | Graphics & Text | Print | Product List | Glossary On
Versions: 1 2 3 4 5 6 7 8 9 10 11 12 13 14 15 16 17 18 19 20 21 22 23 24 25 26 27 28 29 30 31 32 33 34 35 36 37 38 39 40 41 42 43 44 45 46 47 48 49 50
000
ASUS43 KBIS 271631
RWRND
NORTH DAKOTA REGIONAL WEATHER ROUNDUP
NATIONAL WEATHER SERVICE EASTERN NORTH DAKOTA/GRAND FORKS ND
1100 AM CDT SAT MAY 27 2017

  NOTE: "FAIR" INDICATES FEW OR NO CLOUDS BELOW 12,000 FEET WITH NO
  SIGNIFICANT WEATHER AND/OR OBSTRUCTIONS TO VISIBILITY.

NDZ001>003-009>011-017-271700-
...NORTHWEST NORTH DAKOTA...

CITY           SKY/WX    TMP DP  RH WIND       PRES   REMARKS
WILLISTON      FAIR      68  42  38 W14       29.86S
MINOT          FAIR      68  41  37 W15       29.81S
MINOT AFB      FAIR      67  42  40 W13       29.79S
$$

NDZ018>021-031>035-040>046-271700-
...SOUTHWEST NORTH DAKOTA...

CITY           SKY/WX    TMP DP  RH WIND       PRES   REMARKS
BISMARCK       FAIR      70  42  36 W17G24    29.89S
DICKINSON      FAIR      64  37  36 W21       29.90F
GARRISON         N/A     62  42  47 W18       29.85S
HETTINGER      FAIR      64  36  35 W17G26    29.96S
$$

NDZ004>008-012>016-024-026-027-054-271700-
...NORTHEAST NORTH DAKOTA...

CITY           SKY/WX    TMP DP  RH WIND       PRES   REMARKS
GRAND FORKS    FAIR      73  43  33 W21       29.77S
GRAND FORKS AF FAIR      71  44  36 W12G24    29.78S
DEVILS LAKE    FAIR      64  43  46 W15G23    29.81S
$$

NDZ022-023-025-028>030-036>039-047>053-271700-
...SOUTHEAST NORTH DAKOTA...

CITY           SKY/WX    TMP DP  RH WIND       PRES   REMARKS
JAMESTOWN      FAIR      69  39  33 W15       29.83F
FARGO          FAIR      73  42  32 W12       29.81F
WAHPETON       FAIR      72  36  26 W16       29.84F
$$




USA.gov is the U.S. government's official web portal to all federal, state and local government web resources and services.